When you browse on this site, cookies collect data to enhance your experience and personalize the content and advertising you see.
Visit our Privacy Policy to learn more. By continuing to use the site, you agree to this use of cookies and data.
  • In Italy
  • List of Countries
  • For 7 days
  • Water Temperature
  • Satellite Maps
  • Weather Map
  • Weather Widgets
  • user-avatar
    Login

    Hourly Weather Szalwinek

    Today, 23 July, Tuesday

    Time Temperature Precipitation Wind Pressure Humidity
    00:00 +16°C° 0 mm 2 mps 764 mmHg 80%
    01:00 +16°C° 0 mm 2 mps 764 mmHg 79%
    02:00 +16°C° 0.1 mm 2 mps 763 mmHg 81%
    03:00 +16°C° 0.1 mm 2 mps 763 mmHg 84%
    04:00 +16°C° 0.1 mm 2 mps 763 mmHg 86%
    05:00 +16°C° 0 mm 1 mps 763 mmHg 87%
    06:00 +16°C° 0 mm 1 mps 763 mmHg 88%
    07:00 +16°C° 0 mm 1 mps 763 mmHg 89%
    08:00 +16°C° 0.1 mm 1 mps 763 mmHg 89%
    09:00 +18°C° 0.1 mm 1 mps 763 mmHg 88%
    10:00 +18°C° 0.1 mm 1 mps 763 mmHg 88%
    11:00 +18°C° 0 mm 1 mps 763 mmHg 87%
    12:00 +18°C° 0 mm 2 mps 763 mmHg 87%
    13:00 +18°C° 0 mm 2 mps 763 mmHg 87%
    14:00 +19°C° 0 mm 2 mps 763 mmHg 87%
    15:00 +20°C° 0 mm 1 mps 763 mmHg 87%
    16:00 +20°C° 0 mm 1 mps 763 mmHg 87%
    17:00 +20°C° 0 mm 1 mps 763 mmHg 88%
    18:00 +20°C° 0 mm 1 mps 763 mmHg 90%
    19:00 +20°C° 0 mm 1 mps 762 mmHg 91%
    20:00 +20°C° 0 mm 1 mps 763 mmHg 92%
    21:00 +20°C° 0 mm 1 mps 763 mmHg 93%
    22:00 +19°C° 0 mm 1 mps 763 mmHg 94%
    23:00 +19°C° 0 mm 1 mps 763 mmHg 95%

    Tomorrow, 24 July, Wednesday

    Time Temperature Precipitation Wind Pressure Humidity
    00:00 +19°C° 0 mm 1 mps 763 mmHg 95%
    01:00 +19°C° 0 mm 1 mps 763 mmHg 95%
    02:00 +18°C° 0 mm 1 mps 763 mmHg 96%
    03:00 +16°C° 0 mm 0 mps 763 mmHg 96%
    04:00 +15°C° 0 mm 0 mps 762 mmHg 96%
    05:00 +16°C° 0 mm 0 mps 762 mmHg 93%
    06:00 +18°C° 0 mm 0 mps 763 mmHg 89%
    07:00 +19°C° 0 mm 0 mps 763 mmHg 85%
    08:00 +20°C° 0 mm 0 mps 763 mmHg 82%
    09:00 +21°C° 0 mm 0 mps 763 mmHg 78%
    10:00 +22°C° 0 mm 0 mps 763 mmHg 75%
    11:00 +25°C° 0.1 mm 1 mps 763 mmHg 71%
    12:00 +26°C° 0.1 mm 1 mps 763 mmHg 68%
    13:00 +27°C° 0.1 mm 2 mps 762 mmHg 64%
    14:00 +27°C° 0.1 mm 2 mps 762 mmHg 64%
    15:00 +27°C° 0.1 mm 2 mps 762 mmHg 63%
    16:00 +27°C° 0.1 mm 3 mps 762 mmHg 63%
    17:00 +26°C° 0 mm 3 mps 762 mmHg 68%
    18:00 +24°C° 0 mm 3 mps 762 mmHg 73%
    19:00 +22°C° 0 mm 3 mps 762 mmHg 78%
    20:00 +20°C° 0 mm 2 mps 763 mmHg 82%
    21:00 +19°C° 0 mm 2 mps 763 mmHg 85%
    22:00 +18°C° 0 mm 2 mps 763 mmHg 88%
    23:00 +17°C° 0 mm 2 mps 763 mmHg 88%

    Day after tomorrow, 25 July, Thursday

    Time Temperature Precipitation Wind Pressure Humidity
    00:00 +17°C° 0 mm 2 mps 763 mmHg 88%
    01:00 +18°C° 0 mm 1 mps 763 mmHg 88%
    02:00 +16°C° 0 mm 1 mps 763 mmHg 89%
    03:00 +16°C° 0 mm 1 mps 763 mmHg 89%
    04:00 +16°C° 0 mm 1 mps 763 mmHg 90%
    05:00 +18°C° 0 mm 1 mps 763 mmHg 83%
    06:00 +19°C° 0 mm 2 mps 764 mmHg 77%
    07:00 +20°C° 0 mm 2 mps 764 mmHg 71%
    08:00 +21°C° 0 mm 2 mps 764 mmHg 66%
    09:00 +24°C° 0 mm 2 mps 764 mmHg 61%
    10:00 +25°C° 0 mm 3 mps 764 mmHg 57%
    11:00 +26°C° 0 mm 3 mps 764 mmHg 55%
    12:00 +26°C° 0 mm 3 mps 764 mmHg 54%
    13:00 +27°C° 0 mm 4 mps 763 mmHg 52%
    14:00 +26°C° 0 mm 4 mps 763 mmHg 53%
    15:00 +26°C° 0 mm 4 mps 763 mmHg 54%
    16:00 +25°C° 0 mm 5 mps 763 mmHg 54%
    17:00 +23°C° 0 mm 4 mps 763 mmHg 62%
    18:00 +21°C° 0 mm 4 mps 763 mmHg 69%
    19:00 +20°C° 0 mm 3 mps 763 mmHg 76%
    20:00 +18°C° 0 mm 3 mps 763 mmHg 82%
    21:00 +17°C° 0 mm 3 mps 763 mmHg 88%
    22:00 +16°C° 0 mm 2 mps 763 mmHg 94%
    23:00 +16°C° 0 mm 2 mps 763 mmHg 94%

    26 July, Friday

    Time Temperature Precipitation Wind Pressure Humidity
    00:00 +16°C° 0 mm 3 mps 763 mmHg 95%
    01:00 +16°C° 0 mm 3 mps 763 mmHg 95%
    02:00 +16°C° 0 mm 3 mps 763 mmHg 96%
    03:00 +16°C° 0 mm 3 mps 763 mmHg 96%
    04:00 +16°C° 0 mm 3 mps 763 mmHg 96%
    05:00 +18°C° 0 mm 3 mps 763 mmHg 91%
    06:00 +19°C° 0 mm 4 mps 763 mmHg 85%
    07:00 +21°C° 0 mm 4 mps 763 mmHg 80%
    08:00 +22°C° 0 mm 4 mps 763 mmHg 74%
    09:00 +23°C° 0 mm 5 mps 763 mmHg 67%
    10:00 +26°C° 0 mm 5 mps 763 mmHg 61%
    11:00 +26°C° 0 mm 5 mps 763 mmHg 60%
    12:00 +26°C° 0 mm 5 mps 762 mmHg 59%
    13:00 +27°C° 0 mm 5 mps 762 mmHg 58%
    14:00 +26°C° 0 mm 5 mps 762 mmHg 61%
    15:00 +26°C° 0 mm 5 mps 762 mmHg 63%
    16:00 +26°C° 0 mm 6 mps 762 mmHg 66%
    17:00 +25°C° 0 mm 5 mps 762 mmHg 71%
    18:00 +23°C° 0 mm 5 mps 762 mmHg 76%
    19:00 +21°C° 0 mm 4 mps 762 mmHg 80%
    20:00 +21°C° 0 mm 4 mps 762 mmHg 85%
    21:00 +20°C° 0 mm 3 mps 762 mmHg 90%
    22:00 +19°C° 0 mm 3 mps 762 mmHg 94%
    23:00 +18°C° 0 mm 3 mps 762 mmHg 94%

    27 July, Saturday

    Time Temperature Precipitation Wind Pressure Humidity
    00:00 +18°C° 0 mm 3 mps 762 mmHg 95%
    01:00 +18°C° 0 mm 2 mps 762 mmHg 95%
    02:00 +18°C° 0 mm 2 mps 762 mmHg 96%
    03:00 +18°C° 0 mm 2 mps 762 mmHg 96%
    04:00 +17°C° 0 mm 2 mps 762 mmHg 97%
    05:00 +19°C° 0 mm 2 mps 762 mmHg 92%
    06:00 +20°C° 0 mm 3 mps 762 mmHg 87%
    07:00 +22°C° 0 mm 3 mps 763 mmHg 82%
    08:00 +25°C° 0 mm 3 mps 763 mmHg 74%
    09:00 +26°C° 0 mm 4 mps 763 mmHg 67%
    10:00 +28°C° 0 mm 4 mps 763 mmHg 59%
    11:00 +29°C° 0 mm 4 mps 762 mmHg 57%
    12:00 +30°C° 0 mm 4 mps 762 mmHg 55%
    13:00 +30°C° 0 mm 4 mps 762 mmHg 52%
    14:00 +30°C° 0.1 mm 5 mps 762 mmHg 54%
    15:00 +30°C° 0.1 mm 5 mps 762 mmHg 56%
    16:00 +29°C° 0.1 mm 5 mps 761 mmHg 58%
    17:00 +28°C° 0 mm 5 mps 761 mmHg 65%
    18:00 +27°C° 0 mm 4 mps 761 mmHg 71%
    19:00 +25°C° 0 mm 4 mps 761 mmHg 77%
    20:00 +24°C° 0 mm 3 mps 762 mmHg 82%
    21:00 +22°C° 0 mm 3 mps 762 mmHg 87%
    22:00 +20°C° 0 mm 2 mps 762 mmHg 92%
    23:00 +20°C° 0 mm 2 mps 762 mmHg 92%

    28 July, Sunday

    Time Temperature Precipitation Wind Pressure Humidity
    00:00 +20°C° 0 mm 2 mps 762 mmHg 92%
    01:00 +20°C° 0 mm 2 mps 762 mmHg 93%
    02:00 +19°C° 0 mm 2 mps 762 mmHg 93%
    03:00 +19°C° 0 mm 2 mps 762 mmHg 93%
    04:00 +19°C° 0 mm 2 mps 762 mmHg 93%
    05:00 +21°C° 0 mm 2 mps 762 mmHg 88%
    06:00 +23°C° 0 mm 2 mps 762 mmHg 82%
    07:00 +25°C° 0 mm 2 mps 762 mmHg 76%
    08:00 +27°C° 0 mm 2 mps 762 mmHg 70%
    09:00 +28°C° 0 mm 2 mps 762 mmHg 63%
    10:00 +30°C° 0 mm 3 mps 762 mmHg 57%
    11:00 +30°C° 0 mm 3 mps 762 mmHg 54%
    12:00 +31°C° 0 mm 3 mps 762 mmHg 52%
    13:00 +33°C° 0 mm 3 mps 762 mmHg 49%
    14:00 +31°C° 0 mm 3 mps 762 mmHg 51%
    15:00 +31°C° 0 mm 3 mps 761 mmHg 54%
    16:00 +30°C° 0 mm 4 mps 761 mmHg 56%
    17:00 +28°C° 0 mm 3 mps 761 mmHg 63%
    18:00 +27°C° 0 mm 3 mps 761 mmHg 69%
    19:00 +25°C° 0 mm 3 mps 761 mmHg 75%
    20:00 +24°C° 0 mm 3 mps 761 mmHg 78%
    21:00 +23°C° 0 mm 2 mps 762 mmHg 81%
    22:00 +20°C° 0 mm 2 mps 762 mmHg 83%
    23:00 +20°C° 0 mm 2 mps 762 mmHg 85%
    Show more